2022-08-05 00:05:53 r, 21.17m,0000000000Hz,0001567726c,0000003.402s, 033.5C,00002191
2022-08-05 00:15:56 r, 21.13m,0000000001Hz,0001521373c,0000003.302s, 033.5C,00002191
2022-08-05 00:25:53 r, 21.42m,0000000000Hz,0001958491c,0000004.250s, 033.5C,00002191
2022-08-05 00:35:53 r, 21.52m,0000000000Hz,0002150606c,0000004.667s, 033.1C,00002191
2022-08-05 00:45:54 r, 21.52m,0000000001Hz,0002177900c,0000004.726s, 033.1C,00002191
2022-08-05 00:55:53 r, 20.99m,0000000001Hz,0001340237c,0000002.909s, 033.1C,00002191
2022-08-05 01:05:53 r, 21.19m,0000000000Hz,0001608610c,0000003.491s, 033.1C,00002191
2022-08-05 01:15:54 r, 20.96m,0000000001Hz,0001308944c,0000002.841s, 033.1C,00002191
2022-08-05 01:25:53 r, 20.24m,0000000001Hz,0000676010c,0000001.467s, 032.8C,00002191
2022-08-05 01:35:53 r, 21.34m,0000000001Hz,0001828348c,0000003.968s, 032.8C,00002191
2022-08-05 01:45:55 r, 21.49m,0000000001Hz,0002098246c,0000004.553s, 033.1C,00002191
2022-08-05 01:55:53 r, 21.40m,0000000001Hz,0001917588c,0000004.161s, 033.1C,00002191
2022-08-05 02:05:53 r, 21.37m,0000000000Hz,0001868526c,0000004.055s, 033.1C,00002191
2022-08-05 02:15:56 r, 20.76m,0000000001Hz,0001092064c,0000002.370s, 032.8C,00002191
2022-08-05 02:25:53 r, 20.41m,0000000001Hz,0000791108c,0000001.717s, 032.8C,00002191
2022-08-05 02:35:53 r, 20.74m,0000000000Hz,0001070625c,0000002.323s, 032.8C,00002191
2022-08-05 02:45:56 r, 20.62m,0000000001Hz,0000951747c,0000002.065s, 032.8C,00002191
2022-08-05 02:55:54 r, 20.70m,0000000000Hz,0001036089c,0000002.248s, 032.8C,00002191
2022-08-05 03:05:53 r, 20.48m,0000000001Hz,0000846973c,0000001.838s, 032.8C,00002191
2022-08-05 03:15:54 r, 19.89m,0000000001Hz,0000492565c,0000001.069s, 032.8C,00002191
2022-08-05 03:25:56 r, 20.09m,0000000001Hz,0000590246c,0000001.281s, 032.8C,00002191
2022-08-05 03:35:53 r, 20.62m,0000000000Hz,0000961318c,0000002.086s, 032.8C,00002191
2022-08-05 03:45:55 r, 21.02m,0000000000Hz,0001374434c,0000002.983s, 032.5C,00002191
2022-08-05 03:55:54 r, 19.61m,0000000001Hz,0000380293c,0000000.825s, 032.5C,00002191
2022-08-05 04:05:53 r, 19.78m,0000000001Hz,0000444548c,0000000.965s, 032.5C,00002191
2022-08-05 04:15:56 r, 20.47m,0000000000Hz,0000838177c,0000001.819s, 032.2C,00002191
2022-08-05 04:25:54 r, 19.96m,0000000001Hz,0000522407c,0000001.134s, 032.2C,00002191
2022-08-05 04:35:53 r, 19.49m,0000000002Hz,0000340820c,0000000.740s, 032.5C,00002191
2022-08-05 04:45:56 r, 19.78m,0000000001Hz,0000445561c,0000000.967s, 032.5C,00002191
2022-08-05 04:55:54 r, 19.37m,0000000001Hz,0000304276c,0000000.660s, 032.5C,00002191
2022-08-05 05:05:53 r, 18.97m,0000000002Hz,0000211916c,0000000.460s, 032.5C,00002191
2022-08-05 05:15:54 r, 18.25m,0000000004Hz,0000108611c,0000000.236s, 032.5C,00002191
2022-08-05 05:25:55 r, 17.26m,0000000010Hz,0000043804c,0000000.095s, 032.2C,00002191
2022-08-05 05:35:53 r, 15.21m,0000000069Hz,0000006636c,0000000.014s, 031.9C,00002191
2022-08-05 05:45:55 r, 13.04m,0000000519Hz,0000000000c,0000000.000s, 031.9C,00002191
2022-08-05 05:55:54 r, 11.34m,0000002476Hz,0000000000c,0000000.000s, 031.9C,00002191
2022-08-05 06:05:53 r, 10.30m,0000006440Hz,0000000000c,0000000.000s, 031.9C,00002191
2022-08-05 06:15:54 r, 09.15m,0000018595Hz,0000000000c,0000000.000s, 031.9C,00002191
2022-08-05 06:25:56 r, 08.68m,0000028471Hz,0000000000c,0000000.000s, 031.9C,00002191
2022-08-05 06:35:53 r, 07.76m,0000067027Hz,0000000000c,0000000.000s, 031.9C,00002191
2022-08-05 06:45:53 r, 07.50m,0000084797Hz,0000000000c,0000000.000s, 032.2C,00002191
2022-08-05 06:55:54 r, 07.08m,0000124370Hz,0000000000c,0000000.000s, 031.9C,00002191
2022-08-05 07:05:53 r, 06.28m,0000260501Hz,0000000000c,0000000.000s, 032.2C,00002191
2022-08-05 07:15:54 r, 06.85m,0000153912Hz,0000000000c,0000000.000s, 032.2C,00002191
2022-08-05 07:25:55 r, 06.95m,0000140637Hz,0000000000c,0000000.000s, 031.9C,00002191
2022-08-05 07:35:53 r, 07.11m,0000120619Hz,0000000000c,0000000.000s, 032.2C,00002191
2022-08-05 07:45:55 r, 07.29m,0000102584Hz,0000000000c,0000000.000s, 032.2C,00002191
2022-08-05 07:55:54 r, 06.66m,0000182999Hz,0000000000c,0000000.000s, 032.2C,00002191
2022-08-05 08:05:53 r, 06.29m,0000256972Hz,0000000000c,0000000.000s, 032.2C,00002191
2022-08-05 08:15:54 r, 00.00m,0000442937Hz,0000000000c,0000000.000s, 032.2C,00002191
2022-08-05 08:25:56 r, 06.39m,0000234180Hz,0000000000c,0000000.000s, 032.5C,00002191
2022-08-05 08:35:53 r, 06.24m,0000271577Hz,0000000000c,0000000.000s, 032.5C,00002191
2022-08-05 08:45:53 r, 06.09m,0000309503Hz,0000000000c,0000000.000s, 032.2C,00002191
2022-08-05 08:55:54 r, 06.42m,0000227942Hz,0000000000c,0000000.000s, 031.5C,00002191
2022-08-05 09:05:53 r, 06.74m,0000170927Hz,0000000000c,0000000.000s, 031.5C,00002191
2022-08-05 09:15:56 r, 06.41m,0000229489Hz,0000000000c,0000000.000s, 031.2C,00002191
2022-08-05 09:25:54 r, 00.00m,0000427188Hz,0000000000c,0000000.000s, 031.5C,00002191
2022-08-05 09:35:53 r, 00.00m,0000474753Hz,0000000000c,0000000.000s, 031.9C,00002191
2022-08-05 09:45:54 r, 00.00m,0000527552Hz,0000000000c,0000000.000s, 031.9C,00002191
2022-08-05 09:55:54 r, 00.00m,0000414881Hz,0000000000c,0000000.000s, 031.9C,00002191
2022-08-05 10:05:53 r, 00.00m,0000596290Hz,0000000000c,0000000.000s, 032.5C,00002191
2022-08-05 10:15:53 r, 00.00m,0000595988Hz,0000000000c,0000000.000s, 034.1C,00002191
2022-08-05 10:25:56 r, 00.00m,0000595749Hz,0000000000c,0000000.000s, 036.4C,00002191
2022-08-05 10:35:53 r, 00.00m,0000595595Hz,0000000000c,0000000.000s, 037.3C,00002191
2022-08-05 10:45:53 r, 00.00m,0000595303Hz,0000000000c,0000000.000s, 038.3C,00002191
2022-08-05 10:55:54 r, 00.00m,0000595198Hz,0000000000c,0000000.000s, 039.9C,00002191
2022-08-05 11:05:53 r, 00.00m,0000594930Hz,0000000000c,0000000.000s, 041.2C,00002191
2022-08-05 11:15:56 r, 00.00m,0000595115Hz,0000000000c,0000000.000s, 041.2C,00002191
2022-08-05 11:25:54 r, 00.00m,0000595156Hz,0000000000c,0000000.000s, 040.6C,00002191
2022-08-05 11:35:53 r, 00.00m,0000595198Hz,0000000000c,0000000.000s, 040.2C,00002191
2022-08-05 11:45:54 r, 00.00m,0000595199Hz,0000000000c,0000000.000s, 040.2C,00002191
2022-08-05 11:55:55 r, 00.00m,0000595161Hz,0000000000c,0000000.000s, 040.2C,00002191
2022-08-05 12:05:53 r, 00.00m,0000595202Hz,0000000000c,0000000.000s, 040.2C,00002191
2022-08-05 12:15:53 r, 00.00m,0000595197Hz,0000000000c,0000000.000s, 039.9C,00002191
2022-08-05 12:25:56 r, 00.00m,0000595167Hz,0000000000c,0000000.000s, 040.2C,00002191
2022-08-05 12:35:53 r, 00.00m,0000595115Hz,0000000000c,0000000.000s, 040.9C,00002191
2022-08-05 12:45:53 r, 00.00m,0000595051Hz,0000000000c,0000000.000s, 041.5C,00002191
2022-08-05 12:55:56 r, 00.00m,0000594919Hz,0000000000c,0000000.000s, 042.2C,00002191
2022-08-05 13:05:53 r, 00.00m,0000594753Hz,0000000000c,0000000.000s, 042.2C,00002191
2022-08-05 13:15:56 r, 00.00m,0000594630Hz,0000000000c,0000000.000s, 043.8C,00002191
2022-08-05 13:25:54 r, 00.00m,0000594417Hz,0000000000c,0000000.000s, 044.8C,00002191
2022-08-05 13:35:54 r, 00.00m,0000594375Hz,0000000000c,0000000.000s, 045.7C,00002191
2022-08-05 13:45:54 r, 00.00m,0000594322Hz,0000000000c,0000000.000s, 046.0C,00002191
2022-08-05 13:55:55 r, 00.00m,0000593828Hz,0000000000c,0000000.000s, 048.3C,00002191
2022-08-05 14:05:54 r, 00.00m,0000593458Hz,0000000000c,0000000.000s, 050.9C,00002191
2022-08-05 14:15:55 r, 00.00m,0000593350Hz,0000000000c,0000000.000s, 051.5C,00002191
2022-08-05 14:25:54 r, 00.00m,0000593246Hz,0000000000c,0000000.000s, 051.8C,00002191
2022-08-05 14:35:54 r, 00.00m,0000593145Hz,0000000000c,0000000.000s, 053.1C,00002191
2022-08-05 14:45:54 r, 00.00m,0000593223Hz,0000000000c,0000000.000s, 052.5C,00002191
2022-08-05 14:55:56 r, 00.00m,0000593304Hz,0000000000c,0000000.000s, 051.8C,00002191
2022-08-05 15:05:54 r, 00.00m,0000593260Hz,0000000000c,0000000.000s, 051.5C,00002191
2022-08-05 15:15:54 r, 00.00m,0000592957Hz,0000000000c,0000000.000s, 053.1C,00002191
2022-08-05 15:25:54 r, 00.00m,0000592893Hz,0000000000c,0000000.000s, 053.8C,00002191
2022-08-05 15:35:54 r, 00.00m,0000593018Hz,0000000000c,0000000.000s, 053.5C,00002191
2022-08-05 15:45:54 r, 00.00m,0000593036Hz,0000000000c,0000000.000s, 052.8C,00002191
2022-08-05 15:55:54 r, 00.00m,0000593024Hz,0000000000c,0000000.000s, 052.5C,00002191
2022-08-05 16:05:54 r, 00.00m,0000593145Hz,0000000000c,0000000.000s, 052.2C,00002191
2022-08-05 16:15:54 r, 00.00m,0000593282Hz,0000000000c,0000000.000s, 051.2C,00002191
2022-08-05 16:25:56 r, 00.00m,0000593176Hz,0000000000c,0000000.000s, 051.5C,00002191
2022-08-05 16:35:54 r, 00.00m,0000593306Hz,0000000000c,0000000.000s, 050.9C,00002191
2022-08-05 16:45:54 r, 00.00m,0000593461Hz,0000000000c,0000000.000s, 049.9C,00002191
2022-08-05 16:55:56 r, 00.00m,0000593669Hz,0000000000c,0000000.000s, 048.6C,00002191
2022-08-05 17:05:54 r, 00.00m,0000593704Hz,0000000000c,0000000.000s, 048.3C,00002191
2022-08-05 17:15:54 r, 00.00m,0000593471Hz,0000000000c,0000000.000s, 049.6C,00002191
2022-08-05 17:25:55 r, 00.00m,0000593500Hz,0000000000c,0000000.000s, 049.9C,00002191
2022-08-05 17:35:54 r, 00.00m,0000594032Hz,0000000000c,0000000.000s, 047.0C,00002191
2022-08-05 17:45:54 r, 00.00m,0000594423Hz,0000000000c,0000000.000s, 044.4C,00002191
2022-08-05 17:55:55 r, 00.00m,0000594666Hz,0000000000c,0000000.000s, 042.5C,00002191
2022-08-05 18:05:54 r, 00.00m,0000594810Hz,0000000000c,0000000.000s, 041.2C,00002191
2022-08-05 18:15:54 r, 00.00m,0000594858Hz,0000000000c,0000000.000s, 040.6C,00002191
2022-08-05 18:25:57 r, 00.00m,0000595007Hz,0000000000c,0000000.000s, 039.6C,00002191
2022-08-05 18:35:54 r, 00.00m,0000595106Hz,0000000000c,0000000.000s, 039.0C,00002191
2022-08-05 18:45:54 r, 00.00m,0000595177Hz,0000000000c,0000000.000s, 039.0C,00002191
2022-08-05 18:55:56 r, 00.00m,0000595188Hz,0000000000c,0000000.000s, 038.6C,00002191
2022-08-05 19:05:54 r, 00.00m,0000595189Hz,0000000000c,0000000.000s, 038.0C,00002191
2022-08-05 19:15:54 r, 00.00m,0000595203Hz,0000000000c,0000000.000s, 037.7C,00002191
2022-08-05 19:25:55 r, 00.00m,0000595256Hz,0000000000c,0000000.000s, 037.0C,00002191
2022-08-05 19:35:54 r, 00.00m,0000595317Hz,0000000000c,0000000.000s, 036.7C,00002191
2022-08-05 19:45:54 r, 00.00m,0000595427Hz,0000000000c,0000000.000s, 036.4C,00002191
2022-08-05 19:55:55 r, 00.00m,0000591625Hz,0000000000c,0000000.000s, 035.7C,00002191
2022-08-05 20:05:56 r, 00.00m,0000554229Hz,0000000000c,0000000.000s, 035.4C,00002191
2022-08-05 20:15:54 r, 06.32m,0000251836Hz,0000000000c,0000000.000s, 035.1C,00002191
2022-08-05 20:25:55 r, 06.05m,0000322385Hz,0000000000c,0000000.000s, 034.4C,00002191
2022-08-05 20:35:55 r, 06.63m,0000189141Hz,0000000000c,0000000.000s, 034.1C,00002191
2022-08-05 20:45:54 r, 07.08m,0000124592Hz,0000000000c,0000000.000s, 033.8C,00002191
2022-08-05 20:55:56 r, 08.17m,0000045552Hz,0000000000c,0000000.000s, 033.5C,00002191
2022-08-05 21:05:55 r, 08.89m,0000023545Hz,0000000000c,0000000.000s, 033.1C,00002191
2022-08-05 21:15:54 r, 09.74m,0000010789Hz,0000000000c,0000000.000s, 032.5C,00002191
2022-08-05 21:25:56 r, 11.59m,0000001965Hz,0000000000c,0000000.000s, 032.2C,00002191
2022-08-05 21:35:55 r, 13.51m,0000000333Hz,0000000000c,0000000.000s, 032.2C,00002191
2022-08-05 21:45:54 r, 14.76m,0000000098Hz,0000004396c,0000000.010s, 032.2C,00002191
2022-08-05 21:55:55 r, 16.35m,0000000025Hz,0000019140c,0000000.042s, 031.9C,00002191
2022-08-05 22:05:56 r, 17.56m,0000000009Hz,0000057186c,0000000.124s, 031.9C,00002191
2022-08-05 22:15:54 r, 18.43m,0000000003Hz,0000127628c,0000000.277s, 031.5C,00002191
2022-08-05 22:25:55 r, 18.90m,0000000002Hz,0000196868c,0000000.427s, 031.5C,00002191
2022-08-05 22:35:55 r, 19.06m,0000000002Hz,0000227330c,0000000.493s, 031.2C,00002191
2022-08-05 22:45:54 r, 19.25m,0000000002Hz,0000274546c,0000000.596s, 030.9C,00002191
2022-08-05 22:55:56 r, 19.45m,0000000001Hz,0000330175c,0000000.717s, 030.9C,00002191
2022-08-05 23:05:55 r, 19.95m,0000000001Hz,0000523060c,0000001.135s, 030.9C,00002191
2022-08-05 23:15:54 r, 20.08m,0000000000Hz,0000587136c,0000001.274s, 030.6C,00002191
2022-08-05 23:25:56 r, 20.59m,0000000000Hz,0000938518c,0000002.037s, 030.6C,00002191
2022-08-05 23:35:55 r, 20.98m,0000000000Hz,0001341456c,0000002.911s, 030.6C,00002191
2022-08-05 23:45:54 r, 21.05m,0000000000Hz,0001420565c,0000003.083s, 030.2C,00002191
2022-08-05 23:55:55 r, 20.92m,0000000001Hz,0001266872c,0000002.749s, 030.2C,00002191
